Tracking 17630 objects as of 25-May-2016
HD Live streaming from Space Station
objects crossing your sky now

SL-16 DEB

Track SL-16 DEB now!
10-day predictions


NORAD ID: 22336
Int'l Code: 1992-093Z
Perigee: 840.8 km
Apogee: 1,013.6 km
Inclination: 71.1 °
Period: 103.4 minutes
Semi major axis: 7298 km
RCS: 0.2247 m2 (medium)
Launch date: December 25, 1992
Source: Commonwealth of Independent States (former USSR) (CIS)
Launch site: TYURATAM MISSILE AND SPACE COMPLEX (TTMTR)

Note: This is SATELLITE DEBRIS
Your satellite tracking list
Your tracking list is empty





NASA's NSSDC Master Catalog

Two Line Element Set (TLE):
1 22336U 92093Z   16145.87661591  .00000531  00000-0  42104-3 0  9992
2 22336  71.1332  58.3905 0118391  85.3320 339.8569 13.92456197185856
Source of the keplerian elements: AFSPC

N2YO: 491